(30) Urania
ephemeris date magn radius delta ra dec elong phase
Today25 Jun 202511.22.356 AU1.508 AU21h15m-16°24'137.1°17.1°
Opposition1 Aug 202510.02.302 AU1.287 AU20h49m-17°37'179.2°0.4°
(30) Urania - 2025-06-25
astro.vanbuitenen.nl


 
-1 year
-1 month
-1 day
Now
+1 day
+1 month
+1 year

The interactive orbit chart above shows the body's path through the solar system and its position at the given date. Green and blue lines are shown perpendicular to the ecliptic plane: Green if the path is above the ecliptic plane, blue if it is below. (Left-click and drag to rotate the view; Right-click and drag to move the view; Use scroll wheel to zoom in our out.)

The orbital elements of Urania are:

            e (Eccentricity)                : 0.1268059
            a (Semimajor axis)              : 2.3659895
            i (Inclination)                 : 2.09359
            Ω (Longitude of ascending node) : 307.39688
            ω (Argument of perihelion)      : 87.13747
            M (Mean anomaly)                : 265.41004
            Epoch                           : 2025 May 05

            L (Longitude of perihelion)     : 34.53244
            B (Latitude of perihelion)      : 2.09098
            P (Orbital period in years)     : 3.64            
        

The light curve chart below shows the estimated development of the minor planet's magnitude.


The all-sky chart below shows the path of the minor planet over the same period as the light curve. The current position is marked yellow.





The following chart shows the path of the minor planet in the next few days. The field of view is optimized for (~10x50) binoculars and finderscopes. A more printer-friendly version of the same chart can be found below.




Ephemerides:
Date       Time       RA (2000)    DEC (2000)    delta   radius  elong  phase   PA    magn
2025-06-25 00:00 UT   21 15 35.2   -16 24 01     1.508    2.356  137.1   17.1   253   11.2 
2025-06-25 04:04 UT   21 15 33.1   -16 24 02     1.506    2.355  137.2   17.0   253   11.2 
2025-06-26 00:00 UT   21 15 21.6   -16 24 14     1.498    2.354  138.1   16.8   253   11.2 
2025-06-27 00:00 UT   21 15 06.2   -16 24 35     1.489    2.353  139.1   16.4   253   11.2 
2025-06-28 00:00 UT   21 14 48.9   -16 25 04     1.479    2.351  140.1   16.1   253   11.1 
2025-06-29 00:00 UT   21 14 29.9   -16 25 39     1.470    2.350  141.1   15.7   253   11.1 
2025-06-30 00:00 UT   21 14 09.0   -16 26 21     1.461    2.349  142.2   15.4   253   11.1 
2025-07-01 00:00 UT   21 13 46.4   -16 27 11     1.453    2.347  143.2   15.0   253   11.1 
2025-07-02 00:00 UT   21 13 22.1   -16 28 07     1.444    2.346  144.3   14.7   253   11.0 
2025-07-03 00:00 UT   21 12 55.9   -16 29 10     1.436    2.344  145.3   14.3   253   11.0 
2025-07-04 00:00 UT   21 12 28.1   -16 30 20     1.428    2.343  146.4   13.9   253   11.0 
2025-07-05 00:00 UT   21 11 58.5   -16 31 36     1.420    2.341  147.5   13.5   253   11.0 
2025-07-06 00:00 UT   21 11 27.3   -16 32 59     1.412    2.340  148.5   13.1   253   10.9 
2025-07-07 00:00 UT   21 10 54.3   -16 34 28     1.404    2.339  149.6   12.7   253   10.9 
2025-07-08 00:00 UT   21 10 19.7   -16 36 03     1.397    2.337  150.7   12.3   253   10.9 
2025-07-09 00:00 UT   21 09 43.5   -16 37 44     1.390    2.336  151.8   11.9   253   10.8 
2025-07-10 00:00 UT   21 09 05.7   -16 39 31     1.383    2.334  152.9   11.4   254   10.8 
2025-07-11 00:00 UT   21 08 26.3   -16 41 24     1.376    2.333  154.0   11.0   254   10.8 
2025-07-12 00:00 UT   21 07 45.3   -16 43 22     1.370    2.331  155.2   10.6   254   10.8 
2025-07-13 00:00 UT   21 07 02.8   -16 45 25     1.363    2.330  156.3   10.1   254   10.7 
2025-07-14 00:00 UT   21 06 18.9   -16 47 33     1.357    2.329  157.4    9.6   254   10.7 
2025-07-15 00:00 UT   21 05 33.5   -16 49 47     1.351    2.327  158.6    9.2   254   10.7 
2025-07-16 00:00 UT   21 04 46.7   -16 52 05     1.346    2.326  159.7    8.7   254   10.6 
2025-07-17 00:00 UT   21 03 58.6   -16 54 27     1.340    2.324  160.9    8.2   254   10.6 
2025-07-18 00:00 UT   21 03 09.2   -16 56 53     1.335    2.323  162.0    7.8   254   10.6 
2025-07-19 00:00 UT   21 02 18.4   -16 59 24     1.330    2.321  163.2    7.3   254   10.5 
2025-07-20 00:00 UT   21 01 26.5   -17 01 58     1.325    2.320  164.3    6.8   254   10.5 
2025-07-21 00:00 UT   21 00 33.5   -17 04 36     1.321    2.319  165.5    6.3   254   10.5 
2025-07-22 00:00 UT   20 59 39.4   -17 07 16     1.317    2.317  166.7    5.8   254   10.5 
2025-07-23 00:00 UT   20 58 44.2   -17 09 60     1.313    2.316  167.9    5.3   254   10.4 
2025-07-24 00:00 UT   20 57 48.1   -17 12 46     1.309    2.314  169.0    4.8   254   10.4 
2025-07-25 00:00 UT   20 56 51.1   -17 15 34     1.305    2.313  170.2    4.3   254   10.4 


    Terminology:
            
    delta:  distance between minor planet and earth in AU
    radius: distance between minor planet and sun in AU
    magn:   magnitude (brightness) estimate    
    ra:     right ascension in hours (24h = 360deg)
    dec:    declination in degrees
    elong:  elongation in degrees (angle sun-earth-minor planet)    
    phase:  phase angle in degrees (angle sun-minor planet-earth)        
    AU:     Astronomical Unit (mean distance between earth and sun: 149597870.7 km
    

Orbital elements provided by the MPC (Minor Planet Center).
Calculations by a modified version of AAPlus, a C# implementation of the AA+ project by PJ Naughter from the algorithms presented in the book "Astronomical Algorithms" by Jean Meeus.
NGC2000 dso catalog and star labels from VizieR as provided by the Strasbourg astronomical Data Center.
Tycho2 catalog from the ESO archive.